Location: Dumpton Point
(51.3500°N, 1.4433°E)
Time: 23:36:09
(UTC+00:00)

Tiros 1 despin weight - Pass Details

Date: 26 April 2021
Orbit: 593 x 642 km, 48.2° (Epoch: 07 May)

Event Time Altitude Azimuth Distance (km) Brightness Sun altitude
Exits shadow 03:41:49 10° 226° (SW) 2,004 ? -8.3°
Maximum altitude 03:46:05 38° 159° (SSE) 959 ? -7.7°
Drops below altitude 10° 03:50:19 10° 91° (E) 1,990 ? -7.1°
Sets 03:52:43 0° 84° (E) 2,889 ? -6.8°
